When you browse on this site, cookies collect data to enhance your experience and personalize the content and advertising you see.
Visit our Privacy Policy to learn more. By continuing to use the site, you agree to this use of cookies and data.
  • In United Kingdom
  • List of Countries
  • For 7 days
  • Water Temperature
  • Satellite Maps
  • Weather Map
  • Weather Widgets
  • user-avatar
    Login

    Hourly Weather Graz

    Today, 20 June, Thursday

    Time Temperature Precipitation Wind Pressure Humidity
    00:00 +18°C° 0 mm 1 mps 722 mmHg 82%
    01:00 +18°C° 0 mm 1 mps 722 mmHg 82%
    02:00 +18°C° 0 mm 1 mps 721 mmHg 82%
    03:00 +16°C° 0 mm 1 mps 721 mmHg 83%
    04:00 +16°C° 0 mm 1 mps 721 mmHg 83%
    05:00 +19°C° 0 mm 1 mps 722 mmHg 79%
    06:00 +21°C° 0 mm 1 mps 722 mmHg 74%
    07:00 +23°C° 0 mm 1 mps 722 mmHg 70%
    08:00 +25°C° 0 mm 1 mps 722 mmHg 60%
    09:00 +28°C° 0 mm 1 mps 723 mmHg 51%
    10:00 +30°C° 0 mm 1 mps 723 mmHg 42%
    11:00 +31°C° 0 mm 1 mps 723 mmHg 39%
    12:00 +31°C° 0 mm 1 mps 722 mmHg 36%
    13:00 +32°C° 0 mm 2 mps 722 mmHg 34%
    14:00 +31°C° 0 mm 2 mps 722 mmHg 35%
    15:00 +31°C° 0 mm 2 mps 722 mmHg 36%
    16:00 +31°C° 0 mm 3 mps 721 mmHg 37%
    17:00 +29°C° 0.4 mm 2 mps 721 mmHg 49%
    18:00 +27°C° 0.4 mm 2 mps 722 mmHg 61%
    19:00 +25°C° 0.4 mm 2 mps 722 mmHg 73%
    20:00 +23°C° 1.6 mm 2 mps 722 mmHg 79%
    21:00 +21°C° 1.6 mm 2 mps 722 mmHg 84%
    22:00 +19°C° 1.6 mm 2 mps 723 mmHg 89%
    23:00 +18°C° 0.7 mm 2 mps 723 mmHg 90%

    Tomorrow, 21 June, Friday

    Time Temperature Precipitation Wind Pressure Humidity
    00:00 +18°C° 0.7 mm 2 mps 723 mmHg 90%
    01:00 +17°C° 0.7 mm 2 mps 723 mmHg 91%
    02:00 +18°C° 0.2 mm 1 mps 723 mmHg 90%
    03:00 +18°C° 0.2 mm 1 mps 723 mmHg 90%
    04:00 +16°C° 0.2 mm 1 mps 724 mmHg 90%
    05:00 +19°C° 0.2 mm 1 mps 724 mmHg 87%
    06:00 +20°C° 0.2 mm 1 mps 724 mmHg 85%
    07:00 +21°C° 0.2 mm 1 mps 725 mmHg 83%
    08:00 +23°C° 0.5 mm 1 mps 725 mmHg 77%
    09:00 +25°C° 0.5 mm 1 mps 725 mmHg 71%
    10:00 +27°C° 0.5 mm 1 mps 725 mmHg 65%
    11:00 +27°C° 1.1 mm 1 mps 725 mmHg 65%
    12:00 +27°C° 1.1 mm 1 mps 725 mmHg 65%
    13:00 +27°C° 1.1 mm 1 mps 724 mmHg 65%
    14:00 +27°C° 1 mm 1 mps 724 mmHg 67%
    15:00 +26°C° 1 mm 1 mps 724 mmHg 69%
    16:00 +26°C° 1 mm 1 mps 724 mmHg 71%
    17:00 +25°C° 0.6 mm 1 mps 724 mmHg 74%
    18:00 +22°C° 0.6 mm 0 mps 724 mmHg 78%
    19:00 +21°C° 0.6 mm 0 mps 724 mmHg 81%
    20:00 +20°C° 0.6 mm 0 mps 724 mmHg 82%
    21:00 +19°C° 0.6 mm 0 mps 724 mmHg 83%
    22:00 +18°C° 0.6 mm 0 mps 725 mmHg 84%
    23:00 +18°C° 0.6 mm 0 mps 725 mmHg 86%

    Day after tomorrow, 22 June, Saturday

    Time Temperature Precipitation Wind Pressure Humidity
    00:00 +18°C° 0.6 mm 0 mps 725 mmHg 87%
    01:00 +18°C° 0.6 mm 0 mps 725 mmHg 88%
    02:00 +17°C° 0.5 mm 0 mps 725 mmHg 89%
    03:00 +17°C° 0.5 mm 0 mps 724 mmHg 90%
    04:00 +18°C° 0.5 mm 1 mps 724 mmHg 91%
    05:00 +18°C° 0.1 mm 0 mps 724 mmHg 89%
    06:00 +19°C° 0.1 mm 0 mps 725 mmHg 86%
    07:00 +20°C° 0.1 mm 0 mps 725 mmHg 84%
    08:00 +23°C° 1 mm 1 mps 725 mmHg 80%
    09:00 +24°C° 1 mm 1 mps 725 mmHg 77%
    10:00 +25°C° 1 mm 2 mps 724 mmHg 73%
    11:00 +25°C° 0.7 mm 2 mps 724 mmHg 70%
    12:00 +26°C° 0.7 mm 2 mps 724 mmHg 68%
    13:00 +26°C° 0.7 mm 2 mps 724 mmHg 65%
    14:00 +25°C° 1.4 mm 2 mps 723 mmHg 72%
    15:00 +24°C° 1.4 mm 2 mps 723 mmHg 79%
    16:00 +23°C° 1.4 mm 2 mps 722 mmHg 85%
    17:00 +23°C° 0.2 mm 1 mps 722 mmHg 85%
    18:00 +22°C° 0.2 mm 1 mps 722 mmHg 85%
    19:00 +20°C° 0.2 mm 0 mps 723 mmHg 85%
    20:00 +19°C° 0 mm 0 mps 723 mmHg 86%
    21:00 +20°C° 0 mm 1 mps 723 mmHg 87%
    22:00 +19°C° 0 mm 1 mps 723 mmHg 89%
    23:00 +19°C° 0 mm 1 mps 723 mmHg 88%

    23 June, Sunday

    Time Temperature Precipitation Wind Pressure Humidity
    00:00 +18°C° 0 mm 1 mps 723 mmHg 87%
    01:00 +18°C° 0 mm 1 mps 723 mmHg 87%
    02:00 +18°C° 0 mm 1 mps 723 mmHg 86%
    03:00 +18°C° 0 mm 1 mps 723 mmHg 85%
    04:00 +18°C° 0 mm 1 mps 723 mmHg 85%
    05:00 +19°C° 0 mm 1 mps 723 mmHg 82%
    06:00 +20°C° 0 mm 1 mps 724 mmHg 79%
    07:00 +22°C° 0 mm 1 mps 724 mmHg 76%
    08:00 +23°C° 0.5 mm 1 mps 724 mmHg 74%
    09:00 +24°C° 0.5 mm 1 mps 725 mmHg 73%
    10:00 +25°C° 0.5 mm 1 mps 725 mmHg 71%
    11:00 +26°C° 1.1 mm 1 mps 725 mmHg 71%
    12:00 +26°C° 1.1 mm 1 mps 725 mmHg 72%
    13:00 +26°C° 1.1 mm 1 mps 725 mmHg 72%
    14:00 +26°C° 0.9 mm 1 mps 725 mmHg 72%
    15:00 +26°C° 0.9 mm 1 mps 725 mmHg 71%
    16:00 +27°C° 0.9 mm 1 mps 725 mmHg 70%
    17:00 +26°C° 0.2 mm 1 mps 725 mmHg 73%
    18:00 +25°C° 0.2 mm 1 mps 725 mmHg 76%
    19:00 +24°C° 0.2 mm 1 mps 726 mmHg 79%
    20:00 +22°C° 0 mm 1 mps 726 mmHg 82%
    21:00 +21°C° 0 mm 1 mps 726 mmHg 84%
    22:00 +20°C° 0 mm 1 mps 727 mmHg 87%
    23:00 +20°C° 0 mm 1 mps 727 mmHg 88%

    24 June, Monday

    Time Temperature Precipitation Wind Pressure Humidity
    00:00 +19°C° 0 mm 1 mps 727 mmHg 89%
    01:00 +19°C° 0 mm 1 mps 727 mmHg 90%
    02:00 +18°C° 0 mm 1 mps 727 mmHg 90%
    03:00 +18°C° 0 mm 1 mps 727 mmHg 91%
    04:00 +18°C° 0 mm 1 mps 727 mmHg 91%
    05:00 +19°C° 0 mm 1 mps 727 mmHg 87%
    06:00 +21°C° 0 mm 1 mps 728 mmHg 82%
    07:00 +22°C° 0 mm 1 mps 728 mmHg 78%
    08:00 +24°C° 0 mm 1 mps 729 mmHg 69%
    09:00 +27°C° 0 mm 1 mps 729 mmHg 59%
    10:00 +29°C° 0 mm 1 mps 729 mmHg 49%
    11:00 +29°C° 0 mm 1 mps 729 mmHg 49%
    12:00 +30°C° 0 mm 1 mps 729 mmHg 48%
    13:00 +30°C° 0 mm 1 mps 728 mmHg 47%
    14:00 +30°C° 0 mm 1 mps 728 mmHg 47%
    15:00 +30°C° 0 mm 2 mps 728 mmHg 47%
    16:00 +30°C° 0 mm 2 mps 728 mmHg 48%
    17:00 +28°C° 0 mm 2 mps 728 mmHg 57%
    18:00 +27°C° 0 mm 1 mps 728 mmHg 66%
    19:00 +25°C° 0 mm 1 mps 728 mmHg 74%
    20:00 +24°C° 0 mm 1 mps 729 mmHg 79%
    21:00 +22°C° 0 mm 1 mps 729 mmHg 84%
    22:00 +21°C° 0 mm 1 mps 729 mmHg 88%
    23:00 +21°C° 0 mm 1 mps 729 mmHg 89%

    25 June, Tuesday

    Time Temperature Precipitation Wind Pressure Humidity
    00:00 +20°C° 0 mm 1 mps 729 mmHg 89%
    01:00 +20°C° 0 mm 1 mps 729 mmHg 90%
    02:00 +19°C° 0 mm 1 mps 729 mmHg 90%
    03:00 +19°C° 0 mm 1 mps 729 mmHg 90%
    04:00 +18°C° 0 mm 1 mps 728 mmHg 90%
    05:00 +20°C° 0 mm 1 mps 729 mmHg 83%
    06:00 +22°C° 0 mm 1 mps 729 mmHg 77%
    07:00 +24°C° 0 mm 1 mps 729 mmHg 71%
    08:00 +26°C° 0 mm 1 mps 729 mmHg 62%
    09:00 +28°C° 0 mm 1 mps 730 mmHg 53%
    10:00 +30°C° 0 mm 1 mps 730 mmHg 44%
    11:00 +30°C° 0 mm 1 mps 730 mmHg 42%
    12:00 +31°C° 0 mm 1 mps 729 mmHg 40%
    13:00 +32°C° 0 mm 1 mps 729 mmHg 38%
    14:00 +32°C° 0 mm 2 mps 729 mmHg 40%
    15:00 +31°C° 0 mm 2 mps 729 mmHg 42%
    16:00 +31°C° 0 mm 2 mps 728 mmHg 45%
    17:00 +29°C° 0 mm 2 mps 729 mmHg 55%
    18:00 +28°C° 0 mm 2 mps 729 mmHg 66%
    19:00 +26°C° 0 mm 1 mps 729 mmHg 76%
    20:00 +25°C° 0 mm 1 mps 729 mmHg 80%
    21:00 +24°C° 0 mm 1 mps 729 mmHg 83%
    22:00 +20°C° 0 mm 0 mps 730 mmHg 87%
    23:00 +22°C° 0 mm 1 mps 729 mmHg 88%
    Show more